Date String (YYYY-MM-DD hh:mm:ss) UTC,Instrument flags,absolute air pressure of the measurement (hPa),sample flow rate (lpm),inlet stack bypass flow (lpm),air temperature of the measurement (°C),ambient temperature measured by the external sensor (°C),aerosol sample conditioner tube jacket temperature (°C),OPC LED temperature (°C),internal box temperature (°C),relative humidity of the measurement (%),span deviation,mass concentration of particles derived from Lorenz-Mie calculation of OPC scattering (μg/m³),mass concentration of particles derived from Lorenz-Mie calculation of OPC scattering (μg/m³),mass concentration of particles derived from Lorenz-Mie calculation of OPC scattering (μg/m³)
DateTimeUTC,F1_M11,P_M11,Q1_M11,Q2_M11,T1_M11,T2_M11,T3_M11,T4_M11,T5_M11,U1_M11,ZSPAN_M11,X0_M11,X2_M11,X1_M11
2023-08-19 10:00:00,SystemResetWarning,0831.7,5.01,000.00,028.0,025.1,000.0,036.6,029.5,26.3,0000.0,0003.27,0002.14,0001.68
2023-08-19 10:01:00,SystemResetWarning,0831.7,5.00,000.00,028.0,025.5,000.0,036.6,029.6,26.6,0000.0,0003.25,0002.13,0001.67
2023-08-19 10:02:00,SystemResetWarning,0831.7,5.00,000.00,028.0,025.9,000.0,036.6,029.7,26.5,0000.0,0003.31,0002.15,0001.68
2023-08-19 10:03:00,SystemResetWarning,0831.7,5.00,000.00,028.1,026.2,000.0,036.6,029.8,26.0,0000.0,0004.01,0002.18,0001.69
2023-08-19 10:04:00,SystemResetWarning,0831.7,5.00,000.00,028.1,026.4,000.0,036.6,029.8,25.8,0000.0,0004.39,0002.15,0001.68
2023-08-19 10:05:00,SystemResetWarning,0831.7,5.00,000.00,028.2,026.6,000.0,036.6,029.9,25.8,0000.0,0004.37,0002.15,0001.67
2023-08-19 10:06:00,SystemResetWarning,0831.7,5.00,000.00,028.2,026.8,000.0,036.6,030.0,25.5,0000.0,0004.38,0002.14,0001.66
2023-08-19 10:07:00,SystemResetWarning,0831.7,5.00,000.00,028.2,027.0,000.0,036.7,030.0,25.5,0000.0,0004.22,0002.08,0001.66
2023-08-19 10:08:00,SystemResetWarning,0831.7,4.99,000.00,028.3,027.1,000.0,036.7,030.1,25.5,0000.0,0004.19,0002.07,0001.66
2023-08-19 10:09:00,SystemResetWarning,0831.7,5.00,000.00,028.3,027.2,000.0,036.7,030.1,25.3,0000.0,0004.29,0002.10,0001.66
2023-08-19 10:10:00,SystemResetWarning,0831.7,5.01,000.00,028.4,027.3,000.0,036.7,030.2,25.2,0000.0,0004.28,0002.12,0001.66
2023-08-19 10:11:00,SystemResetWarning,0831.7,5.01,000.00,028.4,027.3,000.0,036.8,030.2,25.4,0000.0,0004.21,0002.13,0001.65
2023-08-19 10:12:00,SystemResetWarning,0831.7,4.98,000.00,028.4,025.9,000.0,036.7,030.0,25.1,0000.0,0004.31,0002.14,0001.66
2023-08-19 10:13:00,SystemResetWarning,0831.7,5.01,000.00,028.3,024.2,000.0,036.6,029.7,24.9,0000.0,0004.38,0002.14,0001.65
2023-08-19 10:14:00,SystemResetWarning,0831.7,5.00,000.00,028.2,023.8,000.0,036.5,029.6,25.2,0000.0,0003.85,0002.14,0001.65
2023-08-19 10:15:00,SystemResetWarning,0831.6,5.01,000.00,028.1,024.1,000.0,036.5,029.4,25.3,0000.0,0003.27,0002.19,0001.67
2023-08-19 10:16:00,SystemResetWarning,0831.6,5.01,000.00,028.1,024.5,000.0,036.5,029.4,25.3,0000.0,0003.76,0002.22,0001.68
2023-08-19 10:17:00,SystemResetWarning,0831.6,4.99,000.00,028.0,025.0,000.0,036.6,029.5,25.2,0000.0,0003.97,0002.21,0001.70
2023-08-19 10:18:00,SystemResetWarning,0831.6,5.00,000.00,028.0,025.4,000.0,036.6,029.6,25.1,0000.0,0004.03,0002.24,0001.71
2023-08-19 10:19:00,SystemResetWarning,0831.6,5.01,000.00,028.1,025.8,000.0,036.6,029.7,24.8,0000.0,0004.03,0002.24,0001.72
2023-08-19 10:20:00,SystemResetWarning,0831.7,5.00,000.00,028.1,026.1,000.0,036.6,029.8,24.9,0000.0,0004.10,0002.27,0001.75
2023-08-19 10:21:00,SystemResetWarning,0831.7,4.99,000.00,028.1,026.3,000.0,036.6,029.8,25.1,0000.0,0004.09,0002.28,0001.77
2023-08-19 10:22:00,SystemResetWarning,0831.7,4.99,000.00,028.2,026.6,000.0,036.6,029.9,24.9,0000.0,0004.11,0002.32,0001.78
2023-08-19 10:23:00,SystemResetWarning,0832.2,5.00,000.00,028.2,026.8,000.0,036.7,030.0,24.8,0000.0,0003.98,0002.28,0001.78
2023-08-19 10:24:00,SystemResetWarning,0831.9,5.00,000.00,028.2,026.9,000.0,036.7,030.0,24.9,0000.0,0004.12,0002.32,0001.79
2023-08-19 10:25:00,SystemResetWarning,0831.8,5.00,000.00,028.3,027.1,000.0,036.7,030.1,26.1,0000.0,0004.18,0002.33,0001.79
2023-08-19 10:26:00,SystemResetWarning,0831.9,5.01,000.00,028.3,027.2,000.0,036.7,030.1,27.7,0000.0,0004.17,0002.32,0001.80
2023-08-19 10:27:00,SystemResetWarning,0831.9,5.00,000.00,028.4,027.3,000.0,036.7,030.2,27.6,0000.0,0003.73,0002.31,0001.81
2023-08-19 10:28:00,SystemResetWarning,0832.0,5.00,000.00,028.4,027.4,000.0,036.8,030.2,26.7,0000.0,0003.57,0002.31,0001.80
2023-08-19 10:29:00,SystemResetWarning,0832.0,4.99,000.00,028.4,027.0,000.0,036.8,030.2,26.4,0000.0,0003.61,0002.27,0001.79
2023-08-19 10:30:00,SystemResetWarning,0831.9,5.00,000.00,028.4,025.4,000.0,036.7,029.9,26.5,0000.0,0003.54,0002.23,0001.76
2023-08-19 10:31:00,SystemResetWarning,0831.8,5.01,000.00,028.3,024.8,000.0,036.6,029.7,27.2,0000.0,0003.40,0002.16,0001.73
2023-08-19 10:32:00,SystemResetWarning,0831.9,5.01,000.00,028.2,024.9,000.0,036.6,029.6,27.9,0000.0,0003.38,0002.12,0001.71
2023-08-19 10:33:00,SystemResetWarning,0831.9,5.00,000.00,028.2,025.2,000.0,036.6,029.6,27.8,0000.0,0003.40,0002.11,0001.70
2023-08-19 10:34:00,SystemResetWarning,0831.9,4.98,000.00,028.2,025.6,000.0,036.7,029.7,27.8,0000.0,0003.66,0002.20,0001.70
2023-08-19 10:35:00,SystemResetWarning,0831.9,5.00,000.00,028.2,025.9,000.0,036.7,029.8,27.6,0000.0,0003.55,0002.17,0001.68
2023-08-19 10:36:00,SystemResetWarning,0831.9,5.01,000.00,028.2,026.2,000.0,036.7,029.9,27.5,0000.0,0003.69,0002.20,0001.68
2023-08-19 10:37:00,SystemResetWarning,0831.9,5.01,000.00,028.3,026.5,000.0,036.7,030.0,27.1,0000.0,0003.56,0002.15,0001.66
2023-08-19 10:38:00,SystemResetWarning,0831.9,5.00,000.00,028.3,026.7,000.0,036.7,030.0,26.6,0000.0,0003.51,0002.13,0001.64
2023-08-19 10:39:00,SystemResetWarning,0831.9,4.99,000.00,028.3,026.9,000.0,036.8,030.1,26.6,0000.0,0003.41,0002.10,0001.64
2023-08-19 10:40:00,SystemResetWarning,0831.9,4.99,000.00,028.4,027.1,000.0,036.8,030.1,26.3,0000.0,0003.28,0002.11,0001.64
2023-08-19 10:41:00,SystemResetWarning,0831.9,5.00,000.00,028.4,027.2,000.0,036.8,030.2,26.3,0000.0,0003.37,0002.15,0001.64
2023-08-19 10:42:00,SystemResetWarning,0831.9,5.01,000.00,028.4,027.3,000.0,036.8,030.2,26.1,0000.0,0003.40,0002.18,0001.65
2023-08-19 10:43:00,SystemResetWarning,0831.9,5.00,000.00,028.5,026.8,000.0,036.8,030.2,26.0,0000.0,0003.54,0002.24,0001.66
2023-08-19 10:44:00,SystemResetWarning,0831.9,4.99,000.00,028.4,024.9,000.0,036.7,029.9,26.2,0000.0,0003.47,0002.22,0001.65
2023-08-19 10:45:00,SystemResetWarning,0832.0,5.02,000.00,028.3,023.9,000.0,036.6,029.6,26.3,0000.0,0003.23,0002.14,0001.65
2023-08-19 10:46:00,SystemResetWarning,0832.0,5.00,000.00,028.2,023.9,000.0,036.6,029.4,26.0,0000.0,0003.47,0002.20,0001.65
2023-08-19 10:47:00,SystemResetWarning,0831.9,5.00,000.00,028.1,024.3,000.0,036.6,029.4,25.9,0000.0,0003.76,0002.21,0001.66
2023-08-19 10:48:00,SystemResetWarning,0832.0,5.00,000.00,028.1,024.7,000.0,036.6,029.5,26.1,0000.0,0003.98,0002.28,0001.66
2023-08-19 10:49:00,SystemResetWarning,0832.0,5.00,000.00,028.1,025.2,000.0,036.6,029.6,26.7,0000.0,0004.09,0002.31,0001.68
2023-08-19 10:50:00,SystemResetWarning,0832.0,5.00,000.00,028.1,025.6,000.0,036.6,029.7,26.5,0000.0,0004.15,0002.33,0001.68
2023-08-19 10:51:00,SystemResetWarning,0832.0,5.00,000.00,028.1,025.9,000.0,036.6,029.7,26.4,0000.0,0004.16,0002.34,0001.68
2023-08-19 10:52:00,SystemResetWarning,0832.0,4.99,000.00,028.1,026.2,000.0,036.6,029.8,26.2,0000.0,0004.17,0002.35,0001.69
2023-08-19 10:53:00,SystemResetWarning,0832.0,5.00,000.00,028.2,026.5,000.0,036.7,029.9,26.2,0000.0,0004.23,0002.36,0001.70
2023-08-19 10:54:00,SystemResetWarning,0832.0,5.00,000.00,028.2,026.7,000.0,036.7,029.9,26.9,0000.0,0004.67,0002.35,0001.69
2023-08-19 10:55:00,SystemResetWarning,0832.0,5.00,000.00,028.2,026.8,000.0,036.7,030.0,27.1,0000.0,0005.32,0002.41,0001.71
2023-08-19 10:56:00,SystemResetWarning,0832.0,5.01,000.00,028.3,027.0,000.0,036.7,030.0,26.9,0000.0,0005.46,0002.47,0001.74
2023-08-19 10:57:00,SystemResetWarning,0832.0,5.00,000.00,028.3,027.1,000.0,036.7,030.1,26.8,0000.0,0005.26,0002.43,0001.75
2023-08-19 10:58:00,SystemResetWarning,0832.0,5.00,000.00,028.4,027.3,000.0,036.8,030.2,26.3,0000.0,0004.77,0002.36,0001.74
2023-08-19 10:59:00,SystemResetWarning,0832.0,5.00,000.00,028.4,027.4,000.0,036.8,030.2,26.7,0000.0,0004.63,0002.32,0001.73
